TimeCDT,TemperatureF,Dew PointF,Humidity,Sea Level PressureIn,VisibilityMPH,Wind Direction,Wind SpeedMPH,Gust SpeedMPH,PrecipitationIn,Events,Conditions,WindDirDegrees,DateUTC
12:54 AM,70.0,68.0,93,29.78,10.0,SSE,4.6,-,N/A,,Clear,160,2013-06-26 05:54:00
1:31 AM,69.8,68.0,94,29.79,10.0,Calm,Calm,-,N/A,,Mostly Cloudy,0,2013-06-26 06:31:00
1:54 AM,70.0,66.9,90,29.77,10.0,SSE,3.5,-,N/A,,Overcast,150,2013-06-26 06:54:00
2:27 AM,69.8,66.2,88,29.78,10.0,Calm,Calm,-,N/A,,Mostly Cloudy,0,2013-06-26 07:27:00
2:54 AM,70.0,68.0,93,29.77,10.0,SE,3.5,-,N/A,,Overcast,140,2013-06-26 07:54:00
3:23 AM,69.8,68.0,94,29.77,10.0,SSE,3.5,-,N/A,,Overcast,150,2013-06-26 08:23:00
3:54 AM,69.1,68.0,96,29.76,10.0,SE,4.6,-,N/A,,Overcast,140,2013-06-26 08:54:00
4:54 AM,70.0,68.0,93,29.75,8.0,ESE,4.6,-,N/A,,Overcast,120,2013-06-26 09:54:00
5:11 AM,69.8,69.8,100,29.75,6.0,East,4.6,-,N/A,,Overcast,100,2013-06-26 10:11:00
5:36 AM,69.8,69.8,100,29.75,1.8,ENE,4.6,-,N/A,,Overcast,60,2013-06-26 10:36:00
5:47 AM,69.8,69.8,100,29.75,0.2,ENE,3.5,-,N/A,Fog,Fog,70,2013-06-26 10:47:00
5:54 AM,69.1,69.1,100,29.74,0.2,ESE,3.5,-,N/A,Fog,Fog,120,2013-06-26 10:54:00
6:54 AM,70.0,70.0,100,29.75,0.2,ESE,6.9,-,N/A,Fog,Fog,110,2013-06-26 11:54:00
7:25 AM,69.8,69.8,100,29.76,1.5,SE,9.2,-,N/A,,Overcast,130,2013-06-26 12:25:00
7:37 AM,69.8,69.8,100,29.77,0.8,SE,8.1,-,N/A,,Overcast,130,2013-06-26 12:37:00
7:54 AM,69.1,69.1,100,29.75,0.8,East,8.1,-,N/A,,Overcast,100,2013-06-26 12:54:00
8:06 AM,69.8,69.8,100,29.76,1.5,ESE,6.9,-,N/A,,Overcast,120,2013-06-26 13:06:00
8:18 AM,69.8,69.8,100,29.76,2.5,SE,5.8,-,N/A,,Overcast,140,2013-06-26 13:18:00
8:27 AM,69.8,69.8,100,29.76,4.0,SE,4.6,-,N/A,,Overcast,130,2013-06-26 13:27:00
8:54 AM,70.0,69.1,97,29.75,6.0,SE,9.2,-,N/A,,Overcast,140,2013-06-26 13:54:00
9:41 AM,73.4,69.8,88,29.76,6.0,SE,9.2,-,N/A,,Overcast,140,2013-06-26 14:41:00
9:54 AM,73.9,70.0,87,29.75,6.0,South,4.6,-,N/A,,Overcast,180,2013-06-26 14:54:00
10:45 AM,73.4,69.8,88,29.76,4.0,SSE,5.8,-,N/A,,Overcast,160,2013-06-26 15:45:00
10:54 AM,75.0,70.0,84,29.75,4.0,South,6.9,-,N/A,,Haze,170,2013-06-26 15:54:00
11:54 AM,75.0,70.0,84,29.75,4.0,Calm,Calm,-,N/A,,Haze,0,2013-06-26 16:54:00
12:07 PM,75.2,69.8,83,29.76,5.0,Calm,Calm,-,N/A,,Haze,0,2013-06-26 17:07:00
12:54 PM,79.0,70.0,74,29.74,7.0,Calm,Calm,-,N/A,,Clear,0,2013-06-26 17:54:00
1:54 PM,82.9,68.0,60,29.72,10.0,South,8.1,-,N/A,,Clear,170,2013-06-26 18:54:00
2:54 PM,82.9,66.0,56,29.73,10.0,South,10.4,17.3,N/A,,Scattered Clouds,190,2013-06-26 19:54:00
3:54 PM,82.9,68.0,60,29.73,10.0,SSW,11.5,-,N/A,,Partly Cloudy,210,2013-06-26 20:54:00
4:54 PM,82.0,66.0,58,29.73,10.0,South,9.2,-,N/A,,Partly Cloudy,170,2013-06-26 21:54:00
5:35 PM,80.6,66.2,61,29.74,10.0,South,8.1,-,N/A,Thunderstorm,Partly Cloudy,180,2013-06-26 22:35:00
5:54 PM,78.1,68.0,71,29.71,8.0,SSE,8.1,-,0.00,Rain-Thunderstorm,Light Rain,150,2013-06-26 22:54:00
6:08 PM,78.8,68.0,69,29.71,8.0,SE,8.1,-,0.01,Rain,Light Rain,140,2013-06-26 23:08:00
6:54 PM,78.1,66.9,68,29.72,10.0,South,6.9,-,0.01,Thunderstorm,Clear,190,2013-06-26 23:54:00
7:28 PM,73.4,68.0,83,29.76,2.5,SW,10.4,-,0.07,Rain,Rain,230,2013-06-27 00:28:00
7:35 PM,73.4,69.8,88,29.76,5.0,WSW,6.9,-,0.08,Rain,Light Rain,250,2013-06-27 00:35:00
7:46 PM,71.6,69.8,94,29.76,9.0,North,4.6,-,0.08,Rain-Thunderstorm,Light Thunderstorms and Rain,360,2013-06-27 00:46:00
7:54 PM,72.0,70.0,93,29.75,2.5,South,4.6,-,0.10,Rain-Thunderstorm,Thunderstorms and Rain,180,2013-06-27 00:54:00
8:00 PM,71.6,69.8,94,29.75,3.0,South,6.9,-,0.01,Rain,Light Rain,190,2013-06-27 01:00:00
8:15 PM,71.6,69.8,94,29.75,6.0,South,8.1,-,0.04,Rain-Thunderstorm,Rain,190,2013-06-27 01:15:00
8:30 PM,71.6,68.0,88,29.74,6.0,SSW,5.8,-,0.06,Rain,Light Rain,200,2013-06-27 01:30:00
8:54 PM,71.1,68.0,90,29.74,10.0,Calm,Calm,-,0.06,,Mostly Cloudy,0,2013-06-27 01:54:00
9:54 PM,69.1,68.0,96,29.76,10.0,East,4.6,-,N/A,,Scattered Clouds,80,2013-06-27 02:54:00
10:54 PM,69.1,68.0,96,29.77,9.0,Calm,Calm,-,N/A,,Partly Cloudy,0,2013-06-27 03:54:00
11:54 PM,69.1,68.0,96,29.77,10.0,Calm,Calm,-,0.01,,Mostly Cloudy,0,2013-06-27 04:54:00